RH
100 100 100 100 100 100 100 91 93 97 99 100 89 88 86 87 84 80 76 66 72 68 70 63 59 64 70 72 76 78 77 76 70 68 66 62 55 49
100 100 100 100 100 100 100 98 100 96 95 100 92 97 99 95 82 84 71 62 63 67 62 61 73 79 79 76 72 65 64 64 62 61 54 49 42 39
100 100 100 94 96 97 100 100 100 93 93 100 100 100 93 86 82 70 61 60 62 58 59 63 62 64 65 64 60 58 56 53 51 48 45 43 40 33
69 76 76 77 85 91 100 94 94 80 75 83 90 84 79 81 64 61 64 65 64 59 56 56 57 54 47 44 41 38 36 35 32 28 25 22 20 19
95 100 100 100 100 88 82 83 95 90 76 78 85 81 71 61 62 67 68 70 67 66 60 50 43 35 36 36 36 36 35 32 30 29 26 23 20 16
100 100 100 100 100 93 94 92 94 90 96 88 67 55 58 61 67 63 67 72 72 67 55 43 38 37 34 30 27 23 21 18 16 14 12 10 8 7
98 100 90 89 100 100 95 100 98 85 75 58 61 65 68 65 65 72 83 72 58 47 46 44 34 28 22 16 12 8 6 5 4 4 4 4 4 4
95 100 100 95 91 97 92 81 62 65 69 73 81 81 74 77 96 78 54 48 53 45 36 30 20 14 8 6 5 4 4 3 3 3 3 3 3 3
100 100 92 95 88 81 67 73 80 77 80 87 76 75 98 81 51 52 48 42 34 24 15 15 8 6 4 4 3 2 2 2 2 3 3 4 4 4
88 94 79 72 72 80 82 84 89 92 84 87 92 79 58 52 49 39 34 30 20 13 7 8 5 4 4 3 3 2 2 2 2 4 4 5 4 3
92 78 87 92 94 85 88 96 99 100 96 79 64 56 52 40 36 30 25 17 10 8 5 4 4 4 4 3 3 2 2 2 3 3 3 3 2 2
100 100 100 100 99 100 100 100 90 79 73 65 55 46 39 36 28 22 12 8 7 6 5 5 5 4 4 3 3 2 2 2 2 3 3 3 3 3
97 99 100 100 100 98 87 74 71 66 62 58 50 45 38 27 18 10 7 6 6 6 6 6 5 4 3 3 3 3 3 2 2 3 3 3 3 3
100 100 96 90 85 74 70 66 66 63 60 53 46 36 23 12 8 7 6 6 6 7 7 6 6 4 4 4 4 4 3 3 3 3 4 4 4 4
92 93 91 84 76 74 76 72 63 55 47 39 27 15 9 8 7 7 7 7 6 7 8 6 6 6 5 5 5 4 4 3 4 5 5 4 4 4
99 90 80 78 78 78 66 58 50 42 29 17 10 8 7 7 7 8 8 9 8 7 8 11 9 9 8 7 6 6 5 5 5 5 6 6 6 6
86 87 84 74 65 57 50 44 30 14 10 8 8 7 8 8 8 10 10 9 10 9 11 14 16 14 13 13 13 11 9 7 6 6 6 5 5 6
83 74 67 62 54 44 33 16 10 9 8 7 8 9 9 10 10 9 10 11 13 18 20 17 14 14 13 11 11 10 11 12 12 11 10 9 8 8
73 67 62 50 38 23 11 10 8 7 8 9 10 9 11 11 10 11 12 16 22 23 20 17 15 13 11 11 11 9 9 9 8 8 9 9 9 9
64 54 41 32 17 11 10 8 7 9 10 10 12 12 10 10 11 12 17 22 23 20 17 16 14 13 13 11 10 10 9 8 8 8 7 7 7 7
46 34 23 12 12 11 9 9 10 10 11 13 12 10 10 12 12 20 23 26 24 20 18 15 15 15 14 14 14 14 12 11 9 8 7 7 7 6
28 14 12 12 11 10 11 10 11 13 15 13 11 12 13 15 21 24 25 25 21 19 16 15 16 16 15 15 15 15 14 13 12 10 9 8 7 8
16 13 12 12 10 12 12 11 14 16 13 12 12 13 14 23 25 26 26 25 20 17 16 16 18 18 18 17 16 15 14 14 14 12 10 8 7 7
Wind_Speed
84 87 88 88 87 88 87 87 85 81 78 82 84 86 89 89 89 90 89 87 86 85 85 85 80 77 76 77 78 81 83 85 87 88 90 93 94 95
88 86 86 86 88 88 88 86 83 79 78 81 87 90 92 94 95 94 92 90 89 89 89 83 81 80 82 84 86 87 89 91 93 96 98 99 101 101
87 88 86 86 86 86 85 83 82 82 82 86 90 93 95 95 95 94 92 89 91 91 85 84 84 85 89 92 94 96 98 101 103 106 108 109 111 112
81 78 77 78 79 79 80 83 85 85 85 86 88 93 93 95 93 91 92 93 89 88 90 91 93 96 98 100 103 105 107 109 111 112 114 115 116 116
75 74 72 73 77 77 81 83 84 86 84 86 88 91 91 91 89 91 91 91 93 98 101 101 104 106 107 107 105 106 108 111 111 111 114 114 114 113
77 76 75 68 78 78 80 82 83 87 89 89 88 85 84 86 87 87 91 97 101 107 112 111 110 109 110 111 112 112 112 112 111 111 110 110 110 109
67 69 71 73 78 80 80 82 86 86 88 83 82 83 83 87 91 96 100 104 110 111 111 113 113 116 116 115 113 110 107 104 101 99 97 97 96 96
56 53 61 66 67 69 72 77 81 78 79 81 85 88 91 97 102 105 107 105 107 113 114 119 118 117 113 108 103 98 94 91 88 86 85 87 86 85
43 50 55 59 64 68 70 72 77 79 81 85 89 95 99 104 103 103 106 108 113 115 111 114 107 104 101 97 92 88 82 77 73 70 70 73 74 76
43 48 52 56 59 64 69 74 79 84 89 94 98 101 101 102 104 105 110 114 114 110 102 101 98 93 89 87 84 79 72 65 59 57 61 66 70 70
47 49 55 62 67 69 72 78 85 91 94 97 99 100 102 105 108 111 113 110 104 103 94 89 85 79 79 76 74 72 66 61 59 59 63 64 62 58
50 56 61 66 71 76 80 83 86 90 94 98 101 104 107 112 113 111 104 99 92 89 83 76 76 72 74 71 68 65 62 56 51 48 50 49 47 47
55 60 65 71 74 77 80 83 87 91 96 101 106 111 115 113 107 101 94 86 80 74 71 66 69 69 64 61 57 57 54 49 45 41 40 39 39 40
62 64 67 71 75 78 81 85 91 97 102 107 112 112 107 101 95 88 81 74 67 62 67 65 61 58 56 53 49 45 45 41 37 35 31 30 30 32
63 67 70 73 77 82 87 92 99 104 108 111 106 100 94 88 81 76 68 64 61 58 57 55 51 50 48 45 43 38 34 33 29 26 24 24 24 24
65 68 72 77 82 88 94 99 105 108 104 97 92 87 81 73 66 62 59 57 59 55 44 46 46 42 40 38 36 35 33 31 28 24 21 19 18 18
68 73 79 83 89 94 99 103 101 93 88 84 79 73 65 61 55 52 52 52 47 46 44 40 40 39 35 33 31 30 27 25 23 22 21 18 16 15
73 78 83 89 94 99 98 90 86 81 77 70 63 59 54 50 48 48 47 42 40 39 39 39 38 35 34 33 30 28 26 24 23 22 19 17 13 12
78 83 89 93 94 87 83 78 75 69 60 56 52 48 45 44 46 44 38 35 35 34 35 35 33 33 32 31 32 30 27 24 22 20 18 18 17 15
82 88 91 87 82 76 71 67 60 54 51 47 43 43 43 43 39 33 32 32 31 31 32 32 32 31 31 29 27 26 26 23 21 21 19 16 14 15
87 85 79 73 68 65 59 54 50 47 43 40 40 41 40 36 30 28 29 29 30 30 30 29 29 28 26 26 26 24 26 27 25 22 17 16 14 14
81 74 69 63 60 54 50 47 44 40 39 40 40 38 34 29 25 26 26 26 27 27 27 28 29 29 27 27 26 24 21 21 21 20 19 17 15 11
73 67 62 57 52 48 46 43 38 36 37 38 37 33 28 23 24 23 23 25 25 26 27 24 23 24 26 26 25 23 22 23 24 23 20 16 13 11
Wind_Direction
283 283 282 282 282 283 284 285 285 286 287 288 289 291 293 294 294 295 296 297 296 295 294 293 288 285 283 280 278 275 274 272 272 271 270 269 268 267
280 279 278 279 279 281 282 282 284 285 286 286 289 290 292 293 294 294 295 295 295 294 293 290 287 285 284 282 281 280 279 278 277 276 274 273 271 270
278 278 278 278 278 279 280 281 282 282 284 285 287 289 290 291 292 293 293 294 293 292 289 287 286 284 283 283 282 281 279 278 277 275 274 273 272 271
276 276 277 278 277 278 279 279 280 282 284 286 287 288 290 291 292 293 294 294 292 290 288 289 288 287 286 284 283 282 280 278 276 275 273 273 272 272
275 276 277 278 277 278 280 281 284 284 287 289 289 290 290 291 293 293 293 292 292 292 292 292 291 290 289 285 284 282 280 278 277 276 276 275 274 273
270 271 271 274 277 279 280 283 286 287 289 290 290 289 289 291 291 291 292 294 295 295 293 293 292 290 289 287 286 284 282 280 279 278 277 276 274 273
270 271 271 271 271 275 280 283 284 286 288 290 292 292 293 294 294 295 296 295 295 295 294 293 293 292 292 291 288 286 285 284 282 280 278 277 275 273
270 273 270 272 276 280 282 283 286 289 293 294 295 295 295 297 297 295 295 295 295 295 296 296 295 294 292 290 289 287 285 284 282 281 280 278 276 274
270 267 276 280 282 284 287 290 291 293 295 295 294 295 295 293 295 296 296 297 298 297 297 299 297 295 295 294 291 289 287 285 284 283 281 278 275 272
276 279 281 283 287 289 291 293 294 295 294 295 295 295 295 296 297 299 300 301 300 300 300 301 298 298 296 294 293 293 291 291 288 282 275 271 268 268
283 287 291 292 292 292 294 294 294 295 294 293 294 296 297 298 301 302 302 302 302 302 303 301 300 300 298 298 297 297 297 293 288 281 274 272 273 273
289 289 289 291 293 293 293 292 292 293 294 296 297 298 301 302 303 303 302 304 305 303 304 304 304 303 302 301 300 299 295 294 290 286 280 275 272 268
291 292 291 289 290 291 292 292 293 295 296 298 300 302 302 303 303 304 306 305 306 305 304 305 306 305 306 304 303 301 298 297 294 289 282 278 273 268
289 290 291 292 293 293 294 297 298 299 300 301 300 301 302 303 305 306 306 306 307 307 308 309 308 309 311 311 308 303 300 298 294 289 285 278 272 267
294 295 294 295 296 299 299 300 300 300 299 300 302 302 304 306 306 306 307 308 308 312 309 310 313 315 315 315 314 311 306 306 307 304 296 287 281 272
295 296 297 299 301 300 300 299 299 300 301 302 302 305 306 306 307 307 308 311 313 313 314 317 319 322 323 323 321 320 318 314 312 308 305 302 297 285
300 301 301 301 301 300 300 301 302 303 303 304 306 306 307 308 309 309 310 313 313 315 322 324 325 327 329 330 330 328 325 322 318 314 311 303 294 284
302 301 301 302 302 303 304 305 304 305 306 307 307 308 310 310 311 312 314 314 318 326 325 325 328 330 329 329 330 328 326 325 324 323 321 314 307 296
303 303 303 303 306 307 307 307 306 309 308 309 310 310 311 312 314 315 315 320 327 325 326 327 328 329 331 334 333 330 328 327 324 320 317 315 310 305
305 304 305 307 308 309 309 308 310 310 312 313 313 314 315 316 315 318 320 327 325 329 332 330 333 336 336 337 338 334 329 327 326 327 325 320 313 302
307 308 310 312 312 311 310 311 313 314 315 316 316 316 316 318 321 322 328 329 331 333 330 332 339 340 341 341 345 344 340 338 340 342 336 326 320 308
311 315 316 317 315 313 313 315 317 319 319 319 319 319 320 323 325 329 331 331 334 330 331 343 347 347 349 350 350 351 351 348 349 344 336 329 320 312
319 319 318 318 315 315 316 318 320 320 321 321 321 322 325 326 329 336 334 338 331 335 346 350 350 352 351 350 353 357 5 8 6 358 347 339 337 332